Presque Isle, ME

11:18 AM EDT on October 01, 2016 (GMT -0400)
Northern Maine Regional At Presque Isle

Weather History for KPQI - May, 2013

Change the Weather History Date:

Monday, May 20, 2013

  Actual Average Record
Temperature  
Mean Temperature 48 °F -  
Max Temperature 53 °F 67 °F 87 °F (1951)
Min Temperature 44 °F 42 °F 25 °F (1934)
Degree Days  
Heating Degree Days 16    
Moisture  
Dew Point 44 °F    
Average Humidity 82    
Maximum Humidity 94    
Minimum Humidity 62    
Precipitation  
Precipitation 0.25 in - - ()
Sea Level Pressure  
Sea Level Pressure 29.98 in    
Wind  
Wind Speed 9 mph (SSE)    
Max Wind Speed 14 mph    
Max Gust Speed 17 mph    
Visibility 8 miles    
Events      
Averages and records for this station are not official NWS values.
T = Trace of Precipitation, MM = Missing Value Source: NWS Daily Summary

Daily Weather History Graph

Daily Weather History Graph

Search for Another Location

Airport or City:

Trip Planner

Search our weather history database for the weather conditions in past years. The results will help you decide how hot, cold, wet, or windy it might be!

Date:

Astronomy

May. 20, 2013 Rise Set
Actual Time 4:52 AM EDT 8:06 PM EDT
Civil Twilight 4:15 AM EDT 8:42 PM EDT
Nautical Twilight 3:27 AM EDT 9:30 PM EDT
Astronomical Twilight 2:28 AM EDT 10:30 PM EDT
Moon 2:53 PM EDT (5/20) 2:04 AM EDT (5/20)
Length of Visible Light 16h 27m
Length of Day
15h 14m
Waxing Gibbous, 75% of the Moon is Illuminated
May 20
Waxing Gibbous
May 25
Full
May 31
Last Quarter
Jun 8
New
Jun 16
First Quarter

Hourly Weather History & Observations

Time (EDT) Temp. Windchill Dew Point Humidity Pressure Visibility Wind Dir Wind Speed Gust Speed Precip Events Conditions
12:15 AM 51.8 °F - 39.2 °F 62% 30.13 in 10.0 mi SSE 11.5 mph - N/A   Clear
12:35 AM 50.0 °F - 37.4 °F 62% 30.13 in 10.0 mi South 11.5 mph - N/A   Clear
12:55 AM 50.0 °F - 37.4 °F 62% 30.12 in 10.0 mi South 9.2 mph - N/A   Clear
1:15 AM 48.2 °F - 37.4 °F 66% 30.12 in 10.0 mi SSE 10.4 mph - N/A   Partly Cloudy
1:35 AM 48.2 °F - 37.4 °F 66% 30.11 in 10.0 mi South 10.4 mph - N/A   Mostly Cloudy
1:55 AM 48.2 °F - 37.4 °F 66% 30.11 in 10.0 mi SSE 8.1 mph - N/A   Mostly Cloudy
2:15 AM 48.2 °F - 37.4 °F 66% 30.10 in 10.0 mi South 11.5 mph - N/A   Mostly Cloudy
2:35 AM 48.2 °F - 37.4 °F 66% 30.10 in 10.0 mi SSE 8.1 mph - N/A   Overcast
2:55 AM 48.2 °F - 37.4 °F 66% 30.09 in 10.0 mi SSE 11.5 mph - N/A   Overcast
3:15 AM 46.4 °F 41.5 °F 37.4 °F 71% 30.08 in 10.0 mi SSE 10.4 mph - N/A   Overcast
3:35 AM 46.4 °F 40.4 °F 37.4 °F 71% 30.08 in 10.0 mi SSE 13.8 mph - N/A   Overcast
3:55 AM 46.4 °F 41.1 °F 37.4 °F 71% 30.08 in 10.0 mi SSE 11.5 mph - N/A   Overcast
4:15 AM 46.4 °F 41.1 °F 37.4 °F 71% 30.07 in 10.0 mi SSE 11.5 mph - N/A   Overcast
4:35 AM 44.6 °F 39.2 °F 37.4 °F 76% 30.06 in 10.0 mi SSE 10.4 mph - N/A   Overcast
4:55 AM 44.6 °F 39.2 °F 37.4 °F 76% 30.05 in 10.0 mi SSE 10.4 mph - N/A   Mostly Cloudy
5:15 AM 44.6 °F 39.7 °F 39.2 °F 81% 30.05 in 10.0 mi SSE 9.2 mph - N/A   Overcast
5:35 AM 44.6 °F 40.2 °F 39.2 °F 81% 30.04 in 10.0 mi SSE 8.1 mph - N/A   Overcast
5:55 AM 44.6 °F 39.2 °F 39.2 °F 81% 30.04 in 10.0 mi SSE 10.4 mph - N/A   Overcast
6:15 AM 44.6 °F 39.7 °F 41.0 °F 87% 30.03 in 10.0 mi SSE 9.2 mph - N/A   Overcast
6:35 AM 44.6 °F 40.7 °F 41.0 °F 87% 30.03 in 7.0 mi SSE 6.9 mph - 0.02 in   Overcast
6:55 AM 44.6 °F 39.7 °F 42.8 °F 93% 30.02 in 10.0 mi SSE 9.2 mph - 0.04 in   Overcast
7:15 AM 44.6 °F 40.2 °F 41.0 °F 87% 30.01 in 9.0 mi SSE 8.1 mph - 0.02 in   Overcast
7:35 AM 46.4 °F 42.9 °F 42.8 °F 87% 30.01 in 10.0 mi SSE 6.9 mph - 0.04 in   Overcast
7:55 AM 46.4 °F 42.4 °F 42.8 °F 87% 29.99 in 10.0 mi SSE 8.1 mph - 0.04 in   Overcast
8:15 AM 46.4 °F 41.9 °F 42.8 °F 87% 29.99 in 10.0 mi SE 9.2 mph 17.3 mph 0.01 in   Overcast
8:35 AM 46.4 °F 41.5 °F 42.8 °F 87% 29.98 in 10.0 mi SSE 10.4 mph - 0.01 in   Overcast
8:55 AM 46.4 °F 41.5 °F 42.8 °F 87% 29.97 in 10.0 mi SSE 10.4 mph - 0.01 in   Overcast
9:15 AM 48.2 °F - 44.6 °F 87% 29.95 in 10.0 mi SSE 9.2 mph 17.3 mph N/A   Overcast
9:35 AM 48.2 °F - 44.6 °F 87% 29.95 in 10.0 mi SE 10.4 mph - N/A   Overcast
9:55 AM 48.2 °F - 44.6 °F 87% 29.95 in 10.0 mi SSE 9.2 mph - N/A   Overcast
10:15 AM 50.0 °F - 44.6 °F 82% 29.96 in 10.0 mi SSE 5.8 mph - N/A   Overcast
10:35 AM 50.0 °F - 44.6 °F 82% 29.96 in 10.0 mi SSE 5.8 mph - 0.01 in   Overcast
10:55 AM 50.0 °F - 44.6 °F 82% 29.96 in 8.0 mi South 11.5 mph - 0.04 in   Overcast
11:35 AM 50.0 °F - 46.4 °F 87% 29.95 in 5.0 mi South 11.5 mph - 0.08 in   Overcast
11:55 AM 51.8 °F - 46.4 °F 82% 29.94 in 4.0 mi SSE 10.4 mph - 0.10 in   Overcast
12:15 PM 51.8 °F - 46.4 °F 82% 29.93 in 7.0 mi SSE 9.2 mph - 0.01 in   Overcast
12:35 PM 51.8 °F - 46.4 °F 82% 29.92 in 6.0 mi SSE 9.2 mph - 0.01 in   Overcast
12:55 PM 51.8 °F - 46.4 °F 82% 29.91 in 6.0 mi SSE 9.2 mph - 0.01 in   Overcast
1:15 PM 51.8 °F - 48.2 °F 88% 29.91 in 8.0 mi South 10.4 mph - N/A   Overcast
1:35 PM 51.8 °F - 48.2 °F 88% 29.91 in 10.0 mi SSE 8.1 mph - N/A   Overcast
1:55 PM 53.6 °F - 48.2 °F 82% 29.90 in 9.0 mi South 11.5 mph - N/A   Overcast
2:15 PM 53.6 °F - 48.2 °F 82% 29.90 in 10.0 mi SSE 10.4 mph - N/A   Overcast
2:55 PM 51.8 °F - 48.2 °F 88% 29.90 in 10.0 mi SSE 8.1 mph - N/A   Overcast
3:15 PM 53.6 °F - 48.2 °F 82% 29.89 in 10.0 mi SSE 9.2 mph - N/A   Overcast
3:35 PM 51.8 °F - 48.2 °F 88% 29.89 in 9.0 mi SE 9.2 mph - N/A   Overcast
3:55 PM 51.8 °F - 48.2 °F 88% 29.90 in 9.0 mi SSE 10.4 mph - 0.01 in   Overcast
4:15 PM 51.8 °F - 48.2 °F 88% 29.90 in 4.0 mi South 6.9 mph - N/A   Overcast
4:35 PM 53.6 °F - 48.2 °F 82% 29.90 in 9.0 mi SSE 6.9 mph - N/A   Overcast
4:55 PM 53.6 °F - 48.2 °F 82% 29.90 in 5.0 mi SSE 5.8 mph - N/A   Overcast
5:15 PM 53.6 °F - 48.2 °F 82% 29.90 in 6.0 mi South 8.1 mph - N/A   Overcast
5:35 PM 53.6 °F - 48.2 °F 82% 29.90 in 9.0 mi South 5.8 mph - N/A   Overcast
6:35 PM 53.6 °F - 48.2 °F 82% 29.91 in 10.0 mi South 6.9 mph - N/A   Overcast
6:55 PM 53.6 °F - 48.2 °F 82% 29.91 in 10.0 mi Calm Calm - N/A   Overcast
7:15 PM 53.6 °F - 48.2 °F 82% 29.92 in 7.0 mi Calm Calm - N/A   Overcast
7:35 PM 53.6 °F - 48.2 °F 82% 29.92 in 10.0 mi Calm Calm - N/A   Overcast
7:55 PM 51.8 °F - 48.2 °F 88% 29.92 in 10.0 mi SSE 4.6 mph - N/A   Overcast
8:15 PM 51.8 °F - 48.2 °F 88% 29.92 in 10.0 mi South 3.5 mph - N/A   Overcast
8:35 PM 51.8 °F - 48.2 °F 88% 29.92 in 10.0 mi SSE 3.5 mph - N/A   Mostly Cloudy
8:55 PM 51.8 °F - 48.2 °F 88% 29.93 in 10.0 mi SE 3.5 mph - N/A   Scattered Clouds
9:15 PM 51.8 °F - 48.2 °F 88% 29.93 in 2.0 mi Calm Calm - N/A   Overcast
9:35 PM 51.8 °F - 48.2 °F 88% 29.93 in 1.2 mi Calm Calm - N/A   Overcast
9:55 PM 50.0 °F - 48.2 °F 94% 29.93 in 0.5 mi Calm Calm - N/A   Overcast
10:15 PM 50.0 °F - 46.4 °F 87% 29.93 in 0.5 mi SSE 3.5 mph - N/A   Overcast
10:35 PM 50.0 °F - 46.4 °F 87% 29.93 in 0.5 mi SSE 3.5 mph - N/A   Overcast
10:55 PM 50.0 °F - 46.4 °F 87% 29.93 in 0.5 mi SSE 3.5 mph - N/A   Overcast
11:15 PM 50.0 °F - 46.4 °F 87% 29.93 in 0.5 mi SSW 3.5 mph - N/A   Overcast
11:35 PM 50.0 °F - 46.4 °F 87% 29.93 in 0.8 mi Calm Calm - N/A   Overcast
11:55 PM 48.2 °F - 46.4 °F 93% 29.94 in 1.2 mi WSW 3.5 mph - N/A   Overcast